| time (UTC) | temp C | wind direction | speed KPH | gust KPH | rain 1hr cm | rain 24hr cm | rain mn cm | humidity % | barometer mb |
| 20260507105032 | 8 | 247 | 16.1 | 33.8 | 0.00 | 0.00 | 0.00 | 45 | 1015.4 |
| 20260507104548 | 8 | 251 | 19.3 | 33.8 | 0.00 | 0.00 | 0.00 | 46 | 1015.5 |
| 20260507104032 | 8 | 238 | 12.9 | 32.2 | 0.00 | 0.00 | 0.00 | 48 | 1015.5 |
| 20260507103537 | 8 | 266 | 12.9 | 33.8 | 0.00 | 0.00 | 0.00 | 48 | 1015.4 |
| 20260507103049 | 8 | 223 | 20.9 | 33.8 | 0.00 | 0.00 | 0.00 | 47 | 1015.4 |
| 20260507102532 | 8 | 247 | 17.7 | 32.2 | 0.00 | 0.00 | 0.00 | 46 | 1015.4 |
| 20260507102032 | 8 | 255 | 16.1 | 32.2 | 0.00 | 0.00 | 0.00 | 44 | 1015.3 |
| 20260507101546 | 9 | 241 | 16.1 | 30.6 | 0.00 | 0.00 | 0.00 | 42 | 1015.2 |
| 20260507101034 | 9 | 255 | 14.5 | 33.8 | 0.00 | 0.00 | 0.00 | 42 | 1015.2 |
| 20260507100534 | 8 | 201 | 17.7 | 40.2 | 0.00 | 0.00 | 0.00 | 42 | 1015.2 |
| 20260507100044 | 9 | 249 | 20.9 | 40.2 | 0.00 | 0.00 | 0.00 | 40 | 1015.2 |
| 20260507095532 | 9 | 210 | 24.1 | 38.6 | 0.00 | 0.00 | 0.00 | 38 | 1015.1 |
| 20260507095035 | 8 | 223 | 19.3 | 32.2 | 0.00 | 0.00 | 0.00 | 39 | 1015.0 |
| 20260507094553 | 8 | 266 | 20.9 | 30.6 | 0.00 | 0.00 | 0.00 | 37 | 1014.9 |
| 20260507094034 | 8 | 255 | 17.7 | 35.4 | 0.00 | 0.00 | 0.00 | 35 | 1014.9 |
| 20260507093533 | 9 | 249 | 16.1 | 35.4 | 0.00 | 0.00 | 0.00 | 36 | 1014.9 |
| 20260507093040 | 9 | 249 | 22.5 | 35.4 | 0.00 | 0.00 | 0.00 | 33 | 1014.8 |
| 20260507092533 | 10 | 236 | 17.7 | 33.8 | 0.00 | 0.00 | 0.00 | 33 | 1014.9 |
| 20260507092032 | 10 | 245 | 14.5 | 29.0 | 0.00 | 0.00 | 0.00 | 35 | 1014.9 |
| 20260507091542 | 10 | 243 | 16.1 | 29.0 | 0.00 | 0.00 | 0.00 | 32 | 1014.9 |
| 20260507091032 | 10 | 212 | 16.1 | 37.0 | 0.00 | 0.00 | 0.00 | 36 | 1014.9 |
| 20260507090534 | 9 | 278 | 16.1 | 37.0 | 0.00 | 0.00 | 0.00 | 35 | 1014.9 |
| 20260507090044 | 9 | 193 | 17.7 | 38.6 | 0.00 | 0.00 | 0.00 | 35 | 1015.0 |
| 20260507085531 | 8 | 228 | 22.5 | 40.2 | 0.00 | 0.00 | 0.00 | 34 | 1015.0 |
| 20260507085031 | 10 | 197 | 20.9 | 40.2 | 0.00 | 0.00 | 0.00 | 34 | 1014.9 |
| 20260507084542 | 10 | 245 | 16.1 | 37.0 | 0.00 | 0.00 | 0.00 | 35 | 1014.9 |
| 20260507084034 | 9 | 214 | 17.7 | 37.0 | 0.00 | 0.00 | 0.00 | 34 | 1014.9 |
| 20260507083534 | 10 | 189 | 9.7 | 25.7 | 0.00 | 0.00 | 0.00 | 33 | 1014.9 |
| 20260507083041 | 10 | 178 | 12.9 | 24.1 | 0.00 | 0.00 | 0.00 | 35 | 1014.9 |
| 20260507082531 | 10 | 169 | 8.0 | 20.9 | 0.00 | 0.00 | 0.00 | 34 | 1015.0 |
| 20260507082030 | 9 | 231 | 9.7 | 20.9 | 0.00 | 0.00 | 0.00 | 37 | 1014.9 |
| 20260507081549 | 8 | 198 | 11.3 | 19.3 | 0.00 | 0.00 | 0.00 | 37 | 1015.0 |
| 20260507081033 | 8 | 209 | 9.7 | 24.1 | 0.00 | 0.00 | 0.00 | 36 | 1015.0 |
| 20260507080529 | 8 | 176 | 12.9 | 25.7 | 0.00 | 0.00 | 0.00 | 36 | 1015.0 |
| 20260507080039 | 8 | 181 | 12.9 | 25.7 | 0.00 | 0.00 | 0.00 | 36 | 1015.0 |
| 20260507075532 | 8 | 174 | 8.0 | 27.4 | 0.00 | 0.00 | 0.00 | 36 | 1015.0 |
| 20260507075031 | 8 | 189 | 12.9 | 27.4 | 0.00 | 0.00 | 0.00 | 38 | 1015.0 |
| 20260507074548 | 8 | 184 | 9.7 | 22.5 | 0.00 | 0.00 | 0.00 | 36 | 1014.9 |
| 20260507074030 | 8 | 150 | 12.9 | 19.3 | 0.00 | 0.00 | 0.00 | 34 | 1015.0 |
| 20260507073531 | 8 | 208 | 9.7 | 22.5 | 0.00 | 0.00 | 0.00 | 36 | 1015.0 |
| 20260507073048 | 7 | 190 | 12.9 | 22.5 | 0.00 | 0.00 | 0.00 | 38 | 1015.0 |
| 20260507072531 | 7 | 144 | 11.3 | 20.9 | 0.00 | 0.00 | 0.00 | 39 | 1015.2 |
| 20260507072030 | 7 | 210 | 12.9 | 22.5 | 0.00 | 0.00 | 0.00 | 38 | 1015.2 |
| 20260507071542 | 7 | 208 | 12.9 | 24.1 | 0.00 | 0.00 | 0.00 | 37 | 1015.2 |
| 20260507071030 | 7 | 201 | 14.5 | 24.1 | 0.00 | 0.00 | 0.00 | 38 | 1015.2 |
| 20260507070530 | 7 | 209 | 9.7 | 19.3 | 0.00 | 0.00 | 0.00 | 38 | 1015.2 |
| 20260507070055 | 7 | 182 | 8.0 | 22.5 | 0.00 | 0.00 | 0.00 | 38 | 1015.1 |
| 20260507065533 | 7 | 176 | 11.3 | 22.5 | 0.00 | 0.00 | 0.00 | 38 | 1015.1 |
| 20260507065030 | 7 | 203 | 11.3 | 19.3 | 0.00 | 0.00 | 0.00 | 39 | 1015.0 |
| 20260507064553 | 7 | 214 | 9.7 | 17.7 | 0.00 | 0.00 | 0.00 | 40 | 1015.2 |
| 20260507064032 | 7 | 228 | 9.7 | 14.5 | 0.00 | 0.00 | 0.00 | 41 | 1015.2 |
| 20260507063530 | 7 | 222 | 8.0 | 14.5 | 0.00 | 0.00 | 0.00 | 39 | 1015.3 |
| 20260507063039 | 7 | 222 | 4.8 | 14.5 | 0.00 | 0.00 | 0.00 | 39 | 1015.2 |
| 20260507062530 | 7 | 182 | 6.4 | 14.5 | 0.00 | 0.00 | 0.00 | 40 | 1015.2 |
| 20260507062032 | 7 | 170 | 6.4 | 20.9 | 0.00 | 0.00 | 0.00 | 38 | 1015.2 |
| 20260507061545 | 7 | 143 | 11.3 | 20.9 | 0.00 | 0.00 | 0.00 | 38 | 1015.1 |
| 20260507061030 | 7 | 201 | 11.3 | 20.9 | 0.00 | 0.00 | 0.00 | 36 | 1015.1 |
| 20260507060530 | 7 | 188 | 8.0 | 19.3 | 0.00 | 0.00 | 0.00 | 39 | 1015.0 |
| 20260507060042 | 6 | 205 | 11.3 | 19.3 | 0.00 | 0.00 | 0.00 | 38 | 1015.0 |
| 20260507055531 | 7 | 140 | 8.0 | 19.3 | 0.00 | 0.00 | 0.00 | 40 | 1014.9 |
| 20260507055031 | 7 | 139 | 11.3 | 17.7 | 0.00 | 0.00 | 0.00 | 41 | 1014.9 |
| 20260507054542 | 6 | 168 | 11.3 | 17.7 | 0.00 | 0.00 | 0.00 | 42 | 1014.8 |
| 20260507054034 | 6 | 177 | 8.0 | 19.3 | 0.00 | 0.00 | 0.00 | 42 | 1014.8 |
| 20260507053531 | 6 | 172 | 11.3 | 19.3 | 0.00 | 0.00 | 0.00 | 41 | 1014.7 |
| 20260507053040 | 6 | 159 | 9.7 | 19.3 | 0.00 | 0.00 | 0.00 | 42 | 1014.7 |
| 20260507052530 | 6 | 130 | 8.0 | 19.3 | 0.00 | 0.00 | 0.00 | 45 | 1014.6 |
| 20260507052030 | 6 | 172 | 6.4 | 19.3 | 0.00 | 0.00 | 0.00 | 47 | 1014.7 |
| 20260507051540 | 5 | 152 | 9.7 | 19.3 | 0.00 | 0.00 | 0.00 | 46 | 1014.7 |
| 20260507051034 | 6 | 147 | 6.4 | 16.1 | 0.00 | 0.00 | 0.00 | 49 | 1014.8 |
| 20260507050534 | 5 | 170 | 6.4 | 16.1 | 0.00 | 0.00 | 0.00 | 53 | 1014.8 |
| 20260507050050 | 5 | 171 | 8.0 | 16.1 | 0.00 | 0.00 | 0.00 | 50 | 1014.7 |
| 20260507045535 | 5 | 157 | 8.0 | 17.7 | 0.00 | 0.00 | 0.00 | 53 | 1014.7 |
| 20260507045033 | 4 | 171 | 8.0 | 17.7 | 0.00 | 0.00 | 0.00 | 55 | 1014.8 |
| 20260507044557 | 3 | 175 | 8.0 | 14.5 | 0.00 | 0.00 | 0.00 | 55 | 1014.9 |
| 20260507044035 | 3 | 158 | 6.4 | 14.5 | 0.00 | 0.00 | 0.00 | 55 | 1014.8 |
| 20260507043534 | 3 | 143 | 8.0 | 14.5 | 0.00 | 0.00 | 0.00 | 57 | 1014.9 |
| 20260507043042 | 2 | 197 | 4.8 | 14.5 | 0.00 | 0.00 | 0.00 | 60 | 1014.8 |
| 20260507042533 | 2 | 160 | 6.4 | 16.1 | 0.00 | 0.00 | 0.00 | 61 | 1014.7 |
| 20260507042034 | 1 | 167 | 6.4 | 16.1 | 0.00 | 0.00 | 0.00 | 62 | 1014.7 |
| 20260507041545 | 1 | 165 | 6.4 | 16.1 | 0.00 | 0.00 | 0.00 | 63 | 1014.8 |
| 20260507041034 | 1 | 142 | 6.4 | 16.1 | 0.00 | 0.00 | 0.00 | 64 | 1014.9 |
| 20260507040534 | 1 | 167 | 6.4 | 14.5 | 0.00 | 0.00 | 0.00 | 65 | 1014.8 |
| 20260507040044 | 0 | 142 | 6.4 | 14.5 | 0.00 | 0.00 | 0.00 | 67 | 1014.8 |
| 20260507035534 | 0 | 172 | 6.4 | 14.5 | 0.00 | 0.00 | 0.00 | 71 | 1014.8 |
| 20260507035035 | -1 | 178 | 4.8 | 14.5 | 0.00 | 0.00 | 0.00 | 75 | 1014.8 |
| 20260507034543 | -2 | 151 | 4.8 | 14.5 | 0.00 | 0.00 | 0.00 | 80 | 1014.7 |
| 20260507034034 | -3 | 159 | 4.8 | 12.9 | 0.00 | 0.00 | 0.00 | 84 | 1014.7 |
| 20260507033535 | -5 | 171 | 3.2 | 9.7 | 0.00 | 0.00 | 0.00 | 85 | 1014.7 |
| 20260507033058 | -5 | 135 | 3.2 | 8.0 | 0.00 | 0.00 | 0.00 | 86 | 1014.7 |
| 20260507032535 | -5 | 0 | 1.6 | 6.4 | 0.00 | 0.00 | 0.00 | 86 | 1014.8 |
| 20260507032040 | -5 | 130 | 0.0 | 4.8 | 0.00 | 0.00 | 0.00 | 86 | 1014.7 |
| 20260507031553 | -5 | 0 | 0.0 | 4.8 | 0.00 | 0.00 | 0.00 | 85 | 1014.7 |
| 20260507031033 | -5 | 132 | 1.6 | 4.8 | 0.00 | 0.00 | 0.00 | 86 | 1014.7 |
| 20260507030535 | -5 | 114 | 1.6 | 4.8 | 0.00 | 0.00 | 0.00 | 86 | 1014.7 |
| 20260507030101 | -6 | 91 | 1.6 | 4.8 | 0.00 | 0.00 | 0.00 | 85 | 1014.6 |
| 20260507025532 | -6 | 95 | 1.6 | 4.8 | 0.00 | 0.00 | 0.00 | 85 | 1014.6 |
| 20260507025031 | -6 | 101 | 1.6 | 4.8 | 0.00 | 0.00 | 0.00 | 86 | 1014.6 |
| 20260507024604 | -6 | 118 | 1.6 | 4.8 | 0.00 | 0.00 | 0.00 | 86 | 1014.6 |
| 20260507024033 | -6 | 93 | 1.6 | 4.8 | 0.00 | 0.00 | 0.00 | 86 | 1014.6 |
| 20260507023534 | -6 | 93 | 1.6 | 4.8 | 0.00 | 0.00 | 0.00 | 86 | 1014.7 |
| 20260507023040 | -6 | 139 | 1.6 | 3.2 | 0.00 | 0.00 | 0.00 | 86 | 1014.7 |
| 20260507022534 | -6 | 153 | 1.6 | 3.2 | 0.00 | 0.00 | 0.00 | 85 | 1014.6 |
| 20260507022035 | -6 | 112 | 1.6 | 4.8 | 0.00 | 0.00 | 0.00 | 85 | 1014.6 |
| 20260507021550 | -6 | 112 | 1.6 | 4.8 | 0.00 | 0.00 | 0.00 | 85 | 1014.6 |
| 20260507021034 | -6 | 112 | 1.6 | 3.2 | 0.00 | 0.00 | 0.00 | 85 | 1014.6 |
| 20260507020536 | -5 | 112 | 1.6 | 3.2 | 0.00 | 0.00 | 0.00 | 85 | 1014.7 |
| 20260507020057 | -5 | 112 | 1.6 | 3.2 | 0.00 | 0.00 | 0.00 | 85 | 1014.8 |
| 20260507015534 | -5 | 112 | 0.0 | 3.2 | 0.00 | 0.00 | 0.00 | 85 | 1014.6 |
| 20260507015036 | -5 | 0 | 0.0 | 3.2 | 0.00 | 0.00 | 0.00 | 84 | 1014.7 |
| 20260507014554 | -5 | 94 | 1.6 | 3.2 | 0.00 | 0.00 | 0.00 | 84 | 1014.6 |
| 20260507014034 | -5 | 94 | 1.6 | 3.2 | 0.00 | 0.00 | 0.00 | 84 | 1014.6 |
| 20260507013539 | -5 | 94 | 1.6 | 3.2 | 0.00 | 0.00 | 0.00 | 83 | 1014.6 |
| 20260507013045 | -5 | 94 | 1.6 | 3.2 | 0.00 | 0.00 | 0.00 | 83 | 1014.6 |
| 20260507012535 | -5 | 0 | 0.0 | 1.6 | 0.00 | 0.00 | 0.00 | 84 | 1014.6 |
| 20260507012035 | -5 | 0 | 0.0 | 1.6 | 0.00 | 0.00 | 0.00 | 84 | 1014.7 |
| 20260507011552 | -5 | 0 | 0.0 | 0.0 | 0.00 | 0.00 | 0.00 | 84 | 1014.6 |
| 20260507011034 | -5 | 0 | 0.0 | 3.2 | 0.00 | 0.00 | 0.00 | 84 | 1014.7 |
| 20260507010535 | -5 | 0 | 0.0 | 3.2 | 0.00 | 0.00 | 0.00 | 83 | 1014.7 |
| 20260507010045 | -5 | 0 | 1.6 | 4.8 | 0.00 | 0.00 | 0.00 | 83 | 1014.6 |
| 20260507005535 | -5 | 94 | 1.6 | 4.8 | 0.00 | 0.00 | 0.00 | 83 | 1014.6 |
| 20260507005034 | -5 | 94 | 1.6 | 4.8 | 0.00 | 0.00 | 0.00 | 83 | 1014.6 |
| 20260507004556 | -5 | 113 | 1.6 | 4.8 | 0.00 | 0.00 | 0.00 | 83 | 1014.6 |
| 20260507004035 | -5 | 126 | 1.6 | 4.8 | 0.00 | 0.00 | 0.00 | 83 | 1014.5 |
| 20260507003534 | -5 | 132 | 1.6 | 4.8 | 0.00 | 0.00 | 0.00 | 83 | 1014.5 |
| 20260507003050 | -5 | 145 | 1.6 | 4.8 | 0.00 | 0.00 | 0.00 | 82 | 1014.5 |
| 20260507002534 | -4 | 140 | 1.6 | 4.8 | 0.00 | 0.00 | 0.00 | 82 | 1014.5 |
| 20260507002034 | -4 | 140 | 1.6 | 4.8 | 0.00 | 0.00 | 0.00 | 81 | 1014.5 |
| 20260507001551 | -4 | 140 | 1.6 | 4.8 | 0.00 | 0.00 | 0.00 | 81 | 1014.6 |
| 20260507001034 | -4 | 170 | 0.0 | 3.2 | 0.00 | 0.00 | 0.00 | 81 | 1014.6 |
| 20260507000534 | -4 | 0 | 0.0 | 0.0 | 0.00 | 0.00 | 0.00 | 81 | 1014.6 |
| 20260507000044 | -3 | 0 | 0.0 | 1.6 | 0.00 | 0.00 | 0.00 | 81 | 1014.5 |
| 20260506235534 | -3 | 0 | 0.0 | 6.4 | 0.00 | 0.00 | 0.00 | 81 | 1014.5 |
| 20260506235033 | -3 | 170 | 1.6 | 6.4 | 0.00 | 0.00 | 0.00 | 81 | 1014.5 |
| 20260506234555 | -3 | 178 | 1.6 | 3.2 | 0.00 | 0.00 | 0.00 | 81 | 1014.5 |
| 20260506234034 | -3 | 178 | 0.0 | 3.2 | 0.00 | 0.00 | 0.00 | 81 | 1014.4 |
| 20260506233534 | -3 | 178 | 0.0 | 3.2 | 0.00 | 0.00 | 0.00 | 80 | 1014.5 |
| 20260506233052 | -3 | 0 | 0.0 | 8.0 | 0.00 | 0.00 | 0.00 | 80 | 1014.5 |
| 20260506232533 | -3 | 191 | 0.0 | 8.0 | 0.00 | 0.00 | 0.00 | 79 | 1014.4 |
| 20260506232034 | -3 | 177 | 1.6 | 6.4 | 0.00 | 0.00 | 0.00 | 79 | 1014.4 |
| 20260506231553 | -3 | 201 | 0.0 | 6.4 | 0.00 | 0.00 | 0.00 | 78 | 1014.5 |
| 20260506231034 | -3 | 224 | 1.6 | 8.0 | 0.00 | 0.00 | 0.00 | 78 | 1014.5 |
| 20260506230533 | -2 | 0 | 1.6 | 8.0 | 0.00 | 0.00 | 0.00 | 78 | 1014.5 |
| 20260506230050 | -2 | 207 | 0.0 | 6.4 | 0.00 | 0.00 | 0.00 | 78 | 1014.4 |
| 20260506225530 | -2 | 203 | 1.6 | 8.0 | 0.00 | 0.00 | 0.00 | 78 | 1014.5 |
| 20260506225034 | -2 | 187 | 1.6 | 8.0 | 0.00 | 0.00 | 0.00 | 78 | 1014.5 |
| 20260506224543 | -2 | 0 | 1.6 | 4.8 | 0.00 | 0.00 | 0.00 | 77 | 1014.4 |
| 20260506224031 | -2 | 0 | 1.6 | 4.8 | 0.00 | 0.00 | 0.00 | 79 | 1014.4 |
| 20260506223532 | -2 | 200 | 1.6 | 4.8 | 0.00 | 0.00 | 0.00 | 78 | 1014.5 |
| 20260506223042 | -2 | 221 | 3.2 | 4.8 | 0.00 | 0.00 | 0.00 | 79 | 1014.4 |
| 20260506222530 | -2 | 0 | 1.6 | 4.8 | 0.00 | 0.00 | 0.00 | 79 | 1014.4 |
| 20260506222030 | -2 | 187 | 1.6 | 4.8 | 0.00 | 0.00 | 0.00 | 79 | 1014.4 |
| 20260506221539 | -2 | 0 | 0.0 | 6.4 | 0.00 | 0.00 | 0.00 | 78 | 1014.2 |
| 20260506221030 | -2 | 0 | 1.6 | 6.4 | 0.00 | 0.00 | 0.00 | 78 | 1014.2 |
| 20260506220530 | -2 | 189 | 1.6 | 6.4 | 0.00 | 0.00 | 0.00 | 78 | 1014.3 |
| 20260506220039 | -3 | 201 | 1.6 | 6.4 | 0.00 | 0.00 | 0.00 | 78 | 1014.2 |
| 20260506215530 | -3 | 217 | 0.0 | 8.0 | 0.00 | 0.00 | 0.00 | 78 | 1014.3 |
| 20260506215033 | -3 | 173 | 1.6 | 8.0 | 0.00 | 0.00 | 0.00 | 77 | 1014.1 |
| 20260506214545 | -3 | 184 | 1.6 | 6.4 | 0.00 | 0.00 | 0.00 | 77 | 1014.1 |
| 20260506214036 | -2 | 0 | 1.6 | 6.4 | 0.00 | 0.00 | 0.00 | 77 | 1014.1 |
| 20260506213533 | -2 | 185 | 1.6 | 6.4 | 0.00 | 0.00 | 0.00 | 77 | 1014.1 |
| 20260506213043 | -2 | 210 | 0.0 | 6.4 | 0.00 | 0.00 | 0.00 | 77 | 1014.1 |
| 20260506212530 | -2 | 201 | 1.6 | 6.4 | 0.00 | 0.00 | 0.00 | 77 | 1014.0 |
| 20260506212031 | -2 | 0 | 0.0 | 8.0 | 0.00 | 0.00 | 0.00 | 77 | 1013.9 |
| 20260506211549 | -2 | 172 | 1.6 | 8.0 | 0.00 | 0.00 | 0.00 | 76 | 1014.0 |
| 20260506211030 | -2 | 170 | 1.6 | 6.4 | 0.00 | 0.00 | 0.00 | 76 | 1014.0 |
| 20260506210531 | -2 | 175 | 1.6 | 8.0 | 0.00 | 0.00 | 0.00 | 76 | 1014.0 |
| 20260506210040 | -2 | 0 | 1.6 | 8.0 | 0.00 | 0.00 | 0.00 | 76 | 1014.0 |
| 20260506205533 | -2 | 174 | 1.6 | 8.0 | 0.00 | 0.00 | 0.00 | 75 | 1014.0 |
| 20260506205030 | -2 | 187 | 3.2 | 8.0 | 0.00 | 0.00 | 0.00 | 75 | 1014.0 |
| 20260506204541 | -2 | 176 | 3.2 | 8.0 | 0.00 | 0.00 | 0.00 | 74 | 1013.9 |
| 20260506204031 | -2 | 155 | 1.6 | 6.4 | 0.00 | 0.00 | 0.00 | 74 | 1013.9 |
| 20260506203532 | -2 | 175 | 1.6 | 8.0 | 0.00 | 0.00 | 0.00 | 73 | 1013.8 |
| 20260506203044 | -2 | 179 | 1.6 | 8.0 | 0.00 | 0.00 | 0.00 | 73 | 1013.7 |
| 20260506202530 | -2 | 147 | 1.6 | 6.4 | 0.00 | 0.00 | 0.00 | 72 | 1013.7 |
| 20260506202034 | -1 | 171 | 1.6 | 6.4 | 0.00 | 0.00 | 0.00 | 72 | 1013.8 |
| 20260506201542 | -1 | 174 | 1.6 | 6.4 | 0.00 | 0.00 | 0.00 | 71 | 1013.7 |
| 20260506201029 | -1 | 232 | 0.0 | 1.6 | 0.00 | 0.00 | 0.00 | 70 | 1013.8 |
| 20260506200632 | -1 | 0 | 0.0 | 0.0 | 0.00 | 0.00 | 0.00 | 70 | 1013.6 |
| 20260506200042 | -1 | 0 | 0.0 | 0.0 | 0.00 | 0.00 | 0.00 | 69 | 1013.6 |
| 20260506195533 | -1 | 0 | 0.0 | 3.2 | 0.00 | 0.00 | 0.00 | 69 | 1013.6 |
| 20260506195032 | 0 | 0 | 0.0 | 3.2 | 0.00 | 0.00 | 0.00 | 68 | 1013.6 |
| 20260506194549 | 0 | 232 | 1.6 | 3.2 | 0.00 | 0.00 | 0.00 | 68 | 1013.4 |
| 20260506194030 | 0 | 232 | 0.0 | 1.6 | 0.00 | 0.00 | 0.00 | 67 | 1013.4 |
| 20260506193529 | 0 | 0 | 0.0 | 1.6 | 0.00 | 0.00 | 0.00 | 66 | 1013.4 |
| 20260506193045 | 0 | 0 | 0.0 | 1.6 | 0.00 | 0.00 | 0.00 | 66 | 1013.3 |
| 20260506192529 | 0 | 232 | 0.0 | 1.6 | 0.00 | 0.00 | 0.00 | 66 | 1013.3 |
| 20260506192034 | 0 | 232 | 0.0 | 1.6 | 0.00 | 0.00 | 0.00 | 66 | 1013.3 |
| 20260506191545 | 0 | 232 | 0.0 | 0.0 | 0.00 | 0.00 | 0.00 | 67 | 1013.3 |
| 20260506191033 | 0 | 0 | 0.0 | 3.2 | 0.00 | 0.00 | 0.00 | 66 | 1013.3 |
| 20260506190533 | 0 | 0 | 0.0 | 4.8 | 0.00 | 0.00 | 0.00 | 67 | 1013.3 |
| 20260506190043 | 0 | 232 | 1.6 | 4.8 | 0.00 | 0.00 | 0.00 | 65 | 1013.3 |
| 20260506185536 | 1 | 232 | 1.6 | 4.8 | 0.00 | 0.00 | 0.00 | 64 | 1013.3 |
| 20260506185029 | 1 | 244 | 1.6 | 4.8 | 0.00 | 0.00 | 0.00 | 62 | 1013.2 |
| 20260506184552 | 2 | 0 | 0.0 | 3.2 | 0.00 | 0.00 | 0.00 | 60 | 1013.2 |
| 20260506184030 | 2 | 0 | 0.0 | 4.8 | 0.00 | 0.00 | 0.00 | 58 | 1013.2 |
| 20260506183530 | 2 | 257 | 0.0 | 4.8 | 0.00 | 0.00 | 0.00 | 58 | 1013.1 |
| 20260506183050 | 3 | 257 | 3.2 | 12.9 | 0.00 | 0.00 | 0.00 | 57 | 1013.1 |
| 20260506182529 | 3 | 255 | 3.2 | 12.9 | 0.00 | 0.00 | 0.00 | 57 | 1013.2 |
| 20260506182029 | 3 | 253 | 4.8 | 12.9 | 0.00 | 0.00 | 0.00 | 55 | 1013.1 |
| 20260506181539 | 3 | 263 | 4.8 | 14.5 | 0.00 | 0.00 | 0.00 | 55 | 1013.1 |
| 20260506181029 | 3 | 270 | 6.4 | 14.5 | 0.00 | 0.00 | 0.00 | 54 | 1013.1 |
| 20260506180533 | 4 | 253 | 3.2 | 11.3 | 0.00 | 0.00 | 0.00 | 55 | 1013.1 |
| 20260506180047 | 4 | 233 | 4.8 | 12.9 | 0.00 | 0.00 | 0.00 | 53 | 1013.1 |
| 20260506175532 | 5 | 249 | 4.8 | 12.9 | 0.00 | 0.00 | 0.00 | 52 | 1013.2 |
| 20260506175035 | 5 | 234 | 6.4 | 14.5 | 0.00 | 0.00 | 0.00 | 51 | 1013.1 |
| 20260506174541 | 5 | 222 | 6.4 | 16.1 | 0.00 | 0.00 | 0.00 | 50 | 1013.1 |
| 20260506174034 | 5 | 222 | 6.4 | 16.1 | 0.00 | 0.00 | 0.00 | 50 | 1013.2 |
| 20260506173530 | 5 | 254 | 8.0 | 16.1 | 0.00 | 0.00 | 0.00 | 50 | 1013.2 |
| 20260506173117 | 5 | 268 | 9.7 | 19.3 | 0.00 | 0.00 | 0.00 | 49 | 1013.1 |
| 20260506172529 | 5 | 203 | 4.8 | 19.3 | 0.00 | 0.00 | 0.00 | 49 | 1013.1 |
| 20260506172030 | 5 | 236 | 11.3 | 19.3 | 0.00 | 0.00 | 0.00 | 48 | 1013.1 |
| 20260506171539 | 6 | 259 | 11.3 | 22.5 | 0.00 | 0.00 | 0.00 | 48 | 1013.1 |
| 20260506171033 | 6 | 228 | 12.9 | 22.5 | 0.00 | 0.00 | 0.00 | 46 | 1013.1 |
| 20260506170529 | 6 | 233 | 6.4 | 16.1 | 0.00 | 0.00 | 0.00 | 48 | 1013.0 |
| 20260506170050 | 6 | 272 | 8.0 | 17.7 | 0.00 | 0.00 | 0.00 | 48 | 1013.0 |
| 20260506165529 | 6 | 257 | 8.0 | 20.9 | 0.00 | 0.00 | 0.00 | 48 | 1013.0 |
| 20260506165030 | 6 | 259 | 8.0 | 22.5 | 0.00 | 0.00 | 0.00 | 48 | 1012.9 |
| 20260506164541 | 6 | 255 | 11.3 | 22.5 | 0.00 | 0.00 | 0.00 | 46 | 1012.9 |
| 20260506164030 | 6 | 256 | 12.9 | 24.1 | 0.00 | 0.00 | 0.00 | 48 | 1012.9 |
| 20260506163535 | 6 | 238 | 12.9 | 24.1 | 0.00 | 0.00 | 0.00 | 49 | 1012.8 |
| 20260506163042 | 6 | 236 | 14.5 | 24.1 | 0.00 | 0.00 | 0.00 | 50 | 1012.9 |
| 20260506162530 | 6 | 242 | 14.5 | 22.5 | 0.00 | 0.00 | 0.00 | 51 | 1013.0 |
| 20260506162033 | 6 | 261 | 11.3 | 22.5 | 0.00 | 0.00 | 0.00 | 50 | 1012.7 |
| 20260506161540 | 6 | 249 | 12.9 | 29.0 | 0.00 | 0.00 | 0.00 | 50 | 1012.7 |
| 20260506161030 | 6 | 247 | 12.9 | 29.0 | 0.00 | 0.00 | 0.00 | 50 | 1012.7 |
| 20260506160530 | 7 | 231 | 12.9 | 25.7 | 0.00 | 0.00 | 0.00 | 50 | 1012.7 |
| 20260506160040 | 7 | 255 | 12.9 | 24.1 | 0.00 | 0.00 | 0.00 | 49 | 1012.8 |
| 20260506155530 | 7 | 266 | 11.3 | 22.5 | 0.00 | 0.00 | 0.00 | 48 | 1012.8 |
| 20260506155032 | 7 | 261 | 11.3 | 27.4 | 0.00 | 0.00 | 0.00 | 49 | 1012.7 |
| 20260506154553 | 7 | 269 | 12.9 | 27.4 | 0.00 | 0.00 | 0.00 | 49 | 1012.6 |
| 20260506154031 | 7 | 256 | 12.9 | 22.5 | 0.00 | 0.00 | 0.00 | 50 | 1012.5 |
| 20260506153533 | 7 | 279 | 14.5 | 20.9 | 0.00 | 0.00 | 0.00 | 49 | 1012.6 |
| 20260506153047 | 7 | 251 | 11.3 | 24.1 | 0.00 | 0.00 | 0.00 | 49 | 1012.6 |
| 20260506152532 | 7 | 266 | 16.1 | 24.1 | 0.00 | 0.00 | 0.00 | 47 | 1012.6 |
| 20260506152032 | 7 | 250 | 11.3 | 24.1 | 0.00 | 0.00 | 0.00 | 49 | 1012.5 |
| 20260506151542 | 7 | 251 | 16.1 | 24.1 | 0.00 | 0.00 | 0.00 | 47 | 1012.5 |
| 20260506151030 | 7 | 251 | 12.9 | 25.7 | 0.00 | 0.00 | 0.00 | 49 | 1012.6 |
| 20260506150533 | 7 | 263 | 9.7 | 25.7 | 0.00 | 0.00 | 0.00 | 47 | 1012.5 |
| 20260506150043 | 7 | 272 | 17.7 | 25.7 | 0.00 | 0.00 | 0.00 | 48 | 1012.6 |
| 20260506145531 | 7 | 220 | 11.3 | 25.7 | 0.00 | 0.00 | 0.00 | 48 | 1012.5 |
| 20260506145032 | 7 | 295 | 14.5 | 24.1 | 0.00 | 0.00 | 0.00 | 46 | 1012.5 |
| 20260506144542 | 7 | 267 | 14.5 | 29.0 | 0.00 | 0.00 | 0.00 | 46 | 1012.5 |
| 20260506144034 | 7 | 277 | 16.1 | 29.0 | 0.00 | 0.00 | 0.00 | 46 | 1012.5 |
| 20260506143530 | 7 | 257 | 11.3 | 29.0 | 0.00 | 0.00 | 0.00 | 46 | 1012.5 |
| 20260506143045 | 7 | 282 | 12.9 | 29.0 | 0.00 | 0.00 | 0.00 | 45 | 1012.6 |
| 20260506142530 | 7 | 264 | 14.5 | 29.0 | 0.00 | 0.00 | 0.00 | 44 | 1012.5 |
| 20260506142029 | 7 | 258 | 16.1 | 29.0 | 0.00 | 0.00 | 0.00 | 46 | 1012.5 |
| 20260506141542 | 7 | 259 | 11.3 | 29.0 | 0.00 | 0.00 | 0.00 | 44 | 1012.5 |
| 20260506141030 | 7 | 222 | 12.9 | 30.6 | 0.00 | 0.00 | 0.00 | 46 | 1012.4 |
| 20260506140534 | 7 | 234 | 16.1 | 30.6 | 0.00 | 0.00 | 0.00 | 45 | 1012.5 |
| 20260506140042 | 7 | 266 | 16.1 | 27.4 | 0.00 | 0.00 | 0.00 | 43 | 1012.5 |
| 20260506135530 | 7 | 253 | 16.1 | 27.4 | 0.00 | 0.00 | 0.00 | 45 | 1012.5 |
| 20260506135033 | 7 | 253 | 17.7 | 30.6 | 0.00 | 0.00 | 0.00 | 46 | 1012.5 |
| 20260506134541 | 7 | 252 | 17.7 | 32.2 | 0.00 | 0.00 | 0.00 | 46 | 1012.5 |
| 20260506134029 | 7 | 249 | 12.9 | 32.2 | 0.00 | 0.00 | 0.00 | 47 | 1012.5 |
| 20260506133529 | 7 | 295 | 17.7 | 29.0 | 0.00 | 0.00 | 0.00 | 46 | 1012.4 |
| 20260506133040 | 7 | 264 | 14.5 | 33.8 | 0.00 | 0.00 | 0.00 | 46 | 1012.4 |
| 20260506132533 | 7 | 251 | 17.7 | 33.8 | 0.00 | 0.00 | 0.00 | 47 | 1012.4 |
| 20260506132032 | 7 | 262 | 19.3 | 32.2 | 0.00 | 0.00 | 0.00 | 46 | 1012.4 |
| 20260506131550 | 7 | 241 | 16.1 | 30.6 | 0.00 | 0.00 | 0.00 | 48 | 1012.3 |
| 20260506131030 | 7 | 272 | 16.1 | 32.2 | 0.00 | 0.00 | 0.00 | 48 | 1012.3 |
| 20260506130533 | 7 | 274 | 20.9 | 32.2 | 0.00 | 0.00 | 0.00 | 48 | 1012.3 |
| 20260506130059 | 7 | 261 | 12.9 | 33.8 | 0.00 | 0.00 | 0.00 | 49 | 1012.2 |
| 20260506125532 | 7 | 228 | 19.3 | 33.8 | 0.00 | 0.00 | 0.00 | 47 | 1012.3 |
| 20260506125036 | 8 | 250 | 14.5 | 27.4 | 0.00 | 0.00 | 0.00 | 46 | 1012.3 |
| 20260506124551 | 7 | 249 | 12.9 | 27.4 | 0.00 | 0.00 | 0.00 | 49 | 1012.2 |
| 20260506124029 | 7 | 266 | 20.9 | 27.4 | 0.00 | 0.00 | 0.00 | 49 | 1012.1 |
| 20260506123529 | 7 | 220 | 14.5 | 33.8 | 0.00 | 0.00 | 0.00 | 47 | 1012.2 |
| 20260506123042 | 7 | 258 | 20.9 | 33.8 | 0.00 | 0.00 | 0.00 | 47 | 1012.2 |
| 20260506122530 | 7 | 254 | 16.1 | 30.6 | 0.00 | 0.00 | 0.00 | 48 | 1012.1 |
| 20260506122032 | 7 | 292 | 16.1 | 32.2 | 0.00 | 0.00 | 0.00 | 49 | 1012.1 |
| 20260506121537 | 8 | 245 | 12.9 | 32.2 | 0.00 | 0.00 | 0.00 | 49 | 1012.0 |
| 20260506121029 | 7 | 240 | 19.3 | 32.2 | 0.00 | 0.00 | 0.00 | 48 | 1012.0 |
| 20260506120534 | 7 | 304 | 19.3 | 32.2 | 0.00 | 0.00 | 0.00 | 50 | 1012.1 |
| 20260506120050 | 7 | 261 | 19.3 | 29.0 | 0.00 | 0.00 | 0.00 | 49 | 1012.1 |
| 20260506115529 | 7 | 241 | 16.1 | 33.8 | 0.00 | 0.00 | 0.00 | 47 | 1011.9 |
| 20260506115032 | 7 | 243 | 19.3 | 33.8 | 0.00 | 0.00 | 0.00 | 48 | 1011.9 |
| 20260506114542 | 7 | 261 | 17.7 | 32.2 | 0.00 | 0.00 | 0.00 | 45 | 1011.9 |
| 20260506114029 | 7 | 237 | 20.9 | 35.4 | 0.00 | 0.00 | 0.00 | 47 | 1011.8 |
| 20260506113533 | 7 | 253 | 20.9 | 35.4 | 0.00 | 0.00 | 0.00 | 47 | 1011.8 |
| 20260506113049 | 7 | 276 | 16.1 | 35.4 | 0.00 | 0.00 | 0.00 | 49 | 1011.8 |
| 20260506112530 | 7 | 240 | 20.9 | 35.4 | 0.00 | 0.00 | 0.00 | 47 | 1011.8 |
| 20260506112032 | 7 | 255 | 17.7 | 30.6 | 0.00 | 0.00 | 0.00 | 48 | 1011.7 |
| 20260506111537 | 7 | 258 | 17.7 | 33.8 | 0.00 | 0.00 | 0.00 | 46 | 1011.7 |
| 20260506111033 | 7 | 263 | 19.3 | 33.8 | 0.00 | 0.00 | 0.00 | 46 | 1011.7 |
| 20260506110531 | 7 | 247 | 11.3 | 30.6 | 0.00 | 0.00 | 0.00 | 49 | 1011.5 |
| 20260506110043 | 7 | 238 | 20.9 | 32.2 | 0.00 | 0.00 | 0.00 | 46 | 1011.5 |
| 20260506105529 | 8 | 240 | 12.9 | 32.2 | 0.00 | 0.00 | 0.00 | 46 | 1011.3 |